SCP
-0 -0 -0 -0 -0 -0 -0 0 0 0 0 0 0 0 0 0 0 0 0 0 0 0 0 0 0 0 0 0 0 0 0 0 0 0 0 0 0 0 0 -0 -0 -0 0 0 -0
-0 -0 -0 -0 -0 -0 -0 0 0 0 0 0 0 0 0 0 0 0 0 0 0 0 0 0 0 0 0 0 0 0 0 -0 0 0 0 0 0 0 0 0 -0 -0 0 0 -0
-0 -0 -0 -0 -0 -0 -0 -0 -0 0 0 0 0 0 0 0 0 0 0 0 -0 0 0 0 0 0 0 0 0 0 0 0 0 0 0 0 0 0 0 0 0 0 0 0 0
-0 -0 -0 -0 -0 -0 -0 -0 -0 0 0 0 0 0 0 0 0 0 0 0 0 0 0 0 0 0 0 0 0 0 0 0 0 0 0 0 0 0 0 0 0 0 0 0 0
-0 -0 -0 -0 -0 -0 -0 -0 -0 -0 0 0 0 0 0 0 0 0 0 0 0 0 0 0 0 0 0 0 0 0 0 0 0 0 0 0 0 0 0 0 0 0 0 0 0
-0 -0 -0 -0 -0 -0 -0 -0 -0 0 -0 -0 -0 -0 0 0 0 0 0 0 0 0 0 0 0 0 0 0 0 0 0 0 0 0 0 0 0 0 0 0 0 0 0 0 0
-0 -0 -0 -0 -0 -0 -0 -0 -0 -0 -0 0 -0 -0 0 0 0 0 0 0 0 0 0 0 0 0 0 0 0 0 0 0 0 0 0 0 0 0 0 0 0 0 0 0 0
-0 -0 -0 -0 -0 -0 -0 -0 -0 0 0 0 0 0 0 -0 0 0 0 0 0 0 0 0 0 0 0 0 0 0 0 0 0 0 0 0 0 0 0 0 0 0 0 0 0
-0 -0 -0 -0 -0 -0 -0 -0 0 0 0 0 0 0 -0 0 0 0 0 0 0 0 0 0 0 0 0 0 0 0 0 0 0 0 0 0 0 0 0 0 0 0 0 0 0
-0 -0 -0 -0 -0 -0 -0 -0 -0 0 -0 0 -0 -0 -0 -0 -0 0 0 0 0 -0 0 0 0 0 0 0 0 0 0 0 0 0 0 0 0 0 0 0 0 0 0 0 0
-0 -0 -0 -0 -0 -0 -0 -0 -0 -0 0 0 -0 0 -0 -0 -0 -0 -0 -0 0 -0 0 0 -0 0 0 0 0 0 0 0 0 0 0 0 0 0 0 0 0 0 0 0 0
-0 -0 -0 -0 -0 -0 0 0 0 0 0 -0 -0 -0 0 -0 -0 -0 -0 0 0 0 0 0 0 0 0 0 0 0 0 0 0 0 0 0 0 0 0 0 0 0 0 0 0
-0 -0 -0 -0 -0 0 0 0 -0 0 0 -0 -0 -0 -0 0 -0 -0 -0 -0 0 0 0 0 0 0 0 0 0 0 0 0 0 -0 -0 0 -0 0 0 0 0 0 0 0 1
-0 -0 -0 -0 0 0 0 -0 -0 -0 0 0 0 -0 0 -0 -0 -0 0 0 0 0 0 0 0 0 0 0 0 0 0 0 0 0 0 0 -0 -0 0 0 0 0 0 1 1
-0 -0 -0 0 0 0 0 0 -0 0 0 0 0 -0 0 0 0 0 0 0 0 0 0 0 0 0 0 0 0 0 0 0 0 0 0 0 0 0 0 0 0 0 0 0 0
-0 -0 -0 0 0 0 0 0 0 0 0 0 0 0 0 0 0 0 0 0 0 0 0 0 0 0 0 0 0 0 0 0 0 0 0 0 0 0 0 0 0 0 0 0 0
-0 0 0 0 0 0 0 0 0 0 0 0 0 0 0 0 0 0 0 0 0 0 0 0 0 0 0 0 0 0 0 0 0 0 0 0 0 0 0 0 0 0 0 0 0
-0 0 0 0 0 0 0 0 0 0 0 0 0 0 0 0 0 0 0 0 0 0 0 0 0 0 0 0 0 0 0 0 0 0 0 0 0 0 0 0 0 0 0 0 0
0 0 0 0 0 0 0 0 0 0 0 0 0 0 0 0 0 0 0 0 0 0 0 0 0 0 0 0 0 0 0 0 0 0 0 0 0 0 0 0 0 0 0 0 0
0 0 -0 0 0 0 0 0 0 0 0 0 0 0 0 0 0 0 0 0 0 0 0 0 0 0 0 0 0 0 0 0 0 0 0 0 0 0 0 0 0 0 0 0 0
0 0 -0 0 0 0 0 0 0 0 0 0 0 0 0 0 0 0 0 0 0 0 0 0 0 0 0 0 0 0 0 0 0 0 0 0 0 0 0 0 0 0 0 0 0
-0 0 0 -0 0 0 0 0 0 0 0 0 0 0 0 0 0 0 0 0 0 0 0 0 0 0 0 0 0 0 0 0 0 0 0 0 0 0 0 0 0 0 0 0 0
0 -0 0 0 0 0 0 0 0 0 0 0 0 0 0 0 0 0 0 0 0 0 0 0 0 0 0 0 0 0 0 0 0 0 0 0 0 0 0 0 0 0 0 0 0
-0 0 -0 0 -0 0 0 0 0 0 0 0 0 0 0 0 0 0 0 0 0 0 0 0 0 0 0 0 0 0 0 0 0 0 0 0 0 0 0 0 0 0 0 0 0
-0 -0 -0 0 0 0 0 0 0 0 0 0 0 0 0 0 0 0 0 0 0 0 0 0 0 0 0 0 0 0 0 0 0 0 0 0 0 0 0 0 0 0 0 0 0
-0 0 0 0 0 0 0 0 0 0 0 0 0 0 0 0 0 0 0 0 0 0 0 0 0 0 0 0 0 0 0 0 0 0 0 0 0 0 0 0 0 0 0 0 0
-0 0 0 0 0 0 0 0 0 0 0 0 0 0 0 0 0 0 0 0 0 0 0 0 0 0 0 0 0 0 0 0 0 0 0 0 0 0 0 0 0 0 0 0 0
Wind_Speed_500mb
38 38 32 29 30 31 30 27 23 21 19 18 17 17 16 16 19 17 10 7 3 14 15 7 5 9 16 9 7 8 9 3 7 9 10 21 18 35 37 8 7 3 8 7 25
40 39 34 29 31 31 31 27 23 18 16 15 15 14 13 14 11 16 14 13 3 10 17 9 14 16 11 6 5 8 8 17 8 5 3 23 9 28 13 1 11 14 16 19 31
41 40 36 30 31 29 30 28 24 19 13 12 12 11 10 12 10 7 11 10 4 13 12 15 17 14 9 7 4 6 8 9 12 22 14 9 20 20 6 6 7 12 11 14 36
42 41 38 30 28 27 29 32 27 20 14 9 7 7 6 7 8 10 19 8 7 13 13 16 14 7 7 6 3 3 8 6 12 13 18 8 18 12 13 22 13 14 12 26 39
43 42 39 30 25 26 31 34 26 20 14 9 3 2 3 5 9 13 20 24 6 9 12 14 14 8 7 4 2 5 5 6 14 23 22 21 15 9 21 27 25 17 16 18 46
42 41 38 29 22 25 31 34 23 21 14 10 7 6 6 6 14 9 14 19 18 7 10 13 11 5 7 4 4 4 9 17 14 12 9 4 11 8 18 14 21 24 22 23 42
41 39 36 26 17 23 31 33 20 23 19 15 11 8 9 9 7 1 6 10 14 18 14 12 8 8 5 4 7 4 8 12 3 4 8 5 10 6 36 34 39 34 32 27 45
40 36 33 20 15 22 31 30 13 19 20 20 18 10 9 7 5 5 5 5 8 9 13 10 8 4 4 6 11 9 11 10 12 15 6 5 13 21 35 41 41 37 38 42 37
40 33 28 12 10 21 28 24 6 11 25 14 13 12 7 6 10 14 9 12 10 7 9 3 4 7 7 8 10 15 4 7 19 13 3 8 17 25 55 40 45 50 46 47 48
42 32 26 14 12 19 26 15 4 10 22 9 12 8 13 11 6 11 17 14 12 13 9 7 8 8 9 12 1 6 6 7 11 11 10 10 17 19 54 36 37 42 38 40 50
46 33 23 15 4 14 21 11 8 4 13 7 7 4 4 12 0 7 10 12 13 15 7 9 12 0 8 8 7 4 5 8 13 13 5 13 13 25 39 38 49 34 27 40 44
49 36 21 14 4 8 17 15 19 12 13 6 4 7 9 7 2 9 9 5 6 5 3 13 1 5 6 6 7 7 5 12 14 8 5 17 17 16 12 15 29 37 25 26 25
52 38 22 12 11 7 7 17 15 17 3 7 3 6 3 2 2 7 11 9 6 4 5 8 7 3 2 9 7 2 4 9 12 14 5 10 13 11 6 18 49 44 27 6 8
53 40 21 9 11 13 3 13 16 10 8 5 4 2 2 4 2 6 18 3 5 4 9 4 7 9 11 10 3 5 6 9 11 6 6 4 12 11 9 14 27 52 42 27 14
53 37 19 4 6 8 6 19 8 1 6 2 2 4 4 4 5 6 15 1 6 5 9 5 12 12 16 5 7 6 13 12 8 7 5 16 4 10 13 13 26 36 37 27 21
47 28 16 8 8 2 11 6 3 9 3 4 6 10 7 15 10 6 8 11 7 10 8 5 3 9 7 4 6 13 9 7 6 6 2 5 5 7 7 11 17 33 34 24 33
33 26 32 25 13 16 14 1 9 7 7 10 6 9 9 12 13 13 9 13 5 5 9 12 6 8 10 9 12 19 14 9 11 8 9 9 5 12 3 5 9 18 24 18 38
23 27 27 25 22 25 8 8 7 3 5 5 7 6 10 13 10 12 6 6 11 9 5 4 8 8 11 5 7 7 5 7 8 5 9 12 12 10 9 14 13 12 15 12 48
12 18 27 31 24 23 6 10 7 1 4 8 5 11 9 9 6 8 6 3 3 3 8 3 5 6 7 6 4 10 7 2 2 4 3 6 7 7 10 7 16 23 19 13 58
4 8 39 32 25 19 10 4 2 3 4 8 6 4 7 10 7 8 0 4 4 8 3 7 5 5 9 7 12 6 3 5 6 4 9 10 8 7 9 4 7 14 21 14 41
14 4 37 29 17 14 8 2 6 8 4 6 4 4 4 3 1 3 4 1 2 6 13 5 6 8 4 8 2 10 6 10 6 6 3 9 11 9 10 14 12 10 3 17 19
17 6 33 26 14 8 4 8 11 6 8 6 7 5 6 5 3 2 4 3 9 9 4 2 8 2 4 2 2 2 6 7 8 9 6 6 11 7 13 26 32 29 19 11 18
20 12 21 21 7 8 14 10 6 13 7 3 4 3 2 6 2 3 5 3 7 5 11 10 2 4 12 9 4 3 5 7 7 4 12 6 11 6 7 17 36 40 49 33 44
16 9 14 22 16 6 10 8 12 23 5 2 5 7 5 1 1 4 4 1 6 4 9 10 7 13 12 12 7 6 7 10 10 7 8 15 15 23 16 18 31 49 48 50 39
17 6 8 9 11 10 3 8 10 13 9 5 5 5 9 6 2 6 3 5 2 2 5 8 8 9 9 11 8 10 16 15 16 16 15 29 19 29 32 21 45 49 38 38 38
10 9 8 7 13 8 8 4 4 11 7 8 1 3 3 8 13 10 9 8 11 1 4 5 4 8 6 13 16 16 16 17 23 25 24 28 34 34 55 42 36 44 39 38 36
17 10 5 5 8 4 2 6 9 13 11 7 2 5 3 13 19 18 19 13 13 14 11 7 10 5 8 6 10 13 13 12 8 4 5 10 16 13 14 17 29 38 30 31 30
Wind_Direction_500mb
1 359 356 353 351 347 342 332 320 305 294 289 292 299 307 319 322 334 42 13 248 197 181 172 169 162 162 155 130 122 65 150 246 173 282 328 352 343 346 277 115 235 297 311 186
2 1 358 354 352 352 350 344 335 318 299 289 289 296 305 326 346 85 46 18 36 176 184 169 146 145 127 124 141 92 106 213 238 222 254 306 328 319 357 348 220 294 288 288 192
1 1 360 353 351 355 359 356 349 339 319 300 295 297 308 340 128 56 28 15 144 166 172 150 135 138 104 114 146 138 170 208 276 290 306 285 334 328 323 316 252 309 296 233 193
1 359 359 355 354 358 359 356 349 347 341 325 309 307 327 10 122 57 39 38 125 177 168 142 141 101 92 101 141 68 233 210 290 309 318 290 311 308 254 254 270 299 315 234 207
359 358 357 357 353 355 357 358 356 357 356 349 342 54 52 71 86 71 46 43 78 162 159 136 134 117 102 154 21 154 277 317 307 301 293 298 297 263 268 268 260 266 275 245 223
358 357 356 358 354 352 356 358 4 6 15 20 41 72 86 95 113 77 56 47 49 69 172 142 106 90 100 127 130 255 279 291 292 296 295 278 306 332 285 324 258 256 264 229 223
357 356 356 359 0 357 357 358 13 33 41 46 59 76 102 96 135 173 39 39 56 58 95 121 52 38 1 27 332 309 325 337 49 326 299 343 341 237 311 319 306 268 252 250 216
356 355 357 0 3 2 358 358 19 36 41 43 53 78 88 76 31 349 16 37 38 57 70 81 46 80 43 327 15 38 57 26 300 356 37 62 274 277 319 321 309 279 259 249 234
355 353 356 351 13 3 356 359 26 22 13 39 45 57 66 22 56 24 61 92 38 67 54 77 94 60 47 67 18 7 31 336 324 318 344 79 277 275 312 316 296 293 278 245 238
353 352 352 340 324 349 350 360 78 11 360 47 51 74 49 25 39 57 101 83 70 97 97 60 62 60 31 53 352 302 344 306 259 273 358 287 258 284 307 315 313 306 273 226 228
351 350 348 337 291 354 358 10 359 7 20 346 325 315 333 9 138 109 116 121 86 75 66 31 63 43 250 188 188 212 207 250 266 264 237 271 278 284 312 0 350 325 264 228 229
349 350 346 334 211 79 36 61 27 328 317 12 339 306 325 344 42 160 138 107 85 102 85 24 66 231 222 188 180 182 248 289 283 271 164 293 298 293 36 30 9 360 320 278 259
348 347 345 333 193 194 44 39 7 350 330 303 280 304 341 130 338 194 178 128 105 75 60 135 257 320 60 35 45 270 162 298 266 314 273 330 305 323 338 11 11 14 17 3 241
345 346 344 346 180 207 252 345 326 320 64 278 265 144 172 217 328 219 194 146 54 116 164 224 347 354 53 65 33 25 331 259 269 348 291 41 285 297 6 356 13 4 14 47 77
344 348 342 336 218 177 292 324 326 284 74 179 183 130 97 102 308 65 198 220 142 115 87 303 26 52 48 27 14 248 310 292 276 249 64 338 307 268 27 357 348 359 357 40 63
351 3 16 40 123 71 315 335 151 51 146 12 15 6 49 16 19 75 85 89 72 85 26 49 55 54 344 23 87 292 337 335 51 109 141 242 174 314 1 324 324 339 351 53 86
9 62 62 58 30 338 329 165 48 113 329 346 354 18 87 1 8 30 40 24 58 42 1 358 358 334 22 19 349 28 39 342 352 16 222 282 319 256 122 36 321 342 352 63 97
50 65 50 29 8 7 6 60 83 35 30 328 20 57 78 11 22 12 71 46 17 58 88 89 315 26 333 113 265 318 122 157 273 238 270 315 252 314 55 50 19 15 357 85 106
78 59 31 13 354 354 357 62 176 139 306 5 58 62 17 3 47 50 52 123 268 7 137 120 275 326 33 0 70 313 42 196 27 28 337 267 297 212 141 82 48 11 360 349 116
67 27 10 357 356 354 71 146 27 260 63 49 82 52 28 354 44 42 6 228 174 33 65 194 318 18 308 59 28 90 112 33 15 328 299 292 284 265 219 142 45 64 338 349 101
17 31 1 1 4 38 95 285 320 17 56 75 152 101 104 62 58 313 351 337 176 42 66 102 116 289 23 27 275 2 36 58 105 134 239 312 274 218 240 157 127 42 18 14 1
13 41 359 6 40 32 38 315 343 314 28 56 96 110 145 171 215 239 136 312 346 156 126 58 130 209 220 334 252 66 149 128 119 266 246 260 264 204 233 177 170 152 163 255 327
359 339 10 8 67 358 326 316 322 11 355 45 117 116 130 183 303 190 155 360 41 121 171 186 36 22 348 359 326 187 179 127 110 117 216 217 266 213 245 189 184 172 182 236 245
5 7 13 54 72 72 3 312 334 341 310 76 112 93 96 93 33 198 195 312 357 87 122 128 143 173 202 218 176 249 220 186 157 183 205 227 277 281 243 217 202 207 215 226 217
23 48 16 328 350 356 327 339 344 349 338 1 38 164 156 178 270 233 237 311 210 5 88 116 194 196 252 242 213 226 244 244 198 224 211 271 230 261 268 206 221 222 221 227 213
35 12 350 307 317 330 13 50 331 329 294 312 229 205 144 179 201 242 195 200 222 38 95 13 225 163 265 253 248 260 257 250 255 251 251 260 272 270 284 278 215 209 223 226 215
17 360 341 337 348 7 266 5 320 345 291 324 8 114 241 239 257 256 239 245 235 178 176 149 146 103 265 331 332 296 231 231 250 202 195 230 243 329 299 276 199 188 204 235 244
Wind_Speed_850mb
38 38 32 29 30 31 30 27 23 21 19 18 17 17 16 16 19 17 10 7 3 14 15 7 5 9 16 9 7 8 9 3 7 9 10 21 18 35 37 8 7 3 8 7 25
40 39 34 29 31 31 31 27 23 18 16 15 15 14 13 14 11 16 14 13 3 10 17 9 14 16 11 6 5 8 8 17 8 5 3 23 9 28 13 1 11 14 16 19 31
41 40 36 30 31 29 30 28 24 19 13 12 12 11 10 12 10 7 11 10 4 13 12 15 17 14 9 7 4 6 8 9 12 22 14 9 20 20 6 6 7 12 11 14 36
42 41 38 30 28 27 29 32 27 20 14 9 7 7 6 7 8 10 19 8 7 13 13 16 14 7 7 6 3 3 8 6 12 13 18 8 18 12 13 22 13 14 12 26 39
43 42 39 30 25 26 31 34 26 20 14 9 3 2 3 5 9 13 20 24 6 9 12 14 14 8 7 4 2 5 5 6 14 23 22 21 15 9 21 27 25 17 16 18 46
42 41 38 29 22 25 31 34 23 21 14 10 7 6 6 6 14 9 14 19 18 7 10 13 11 5 7 4 4 4 9 17 14 12 9 4 11 8 18 14 21 24 22 23 42
41 39 36 26 17 23 31 33 20 23 19 15 11 8 9 9 7 1 6 10 14 18 14 12 8 8 5 4 7 4 8 12 3 4 8 5 10 6 36 34 39 34 32 27 45
40 36 33 20 15 22 31 30 13 19 20 20 18 10 9 7 5 5 5 5 8 9 13 10 8 4 4 6 11 9 11 10 12 15 6 5 13 21 35 41 41 37 38 42 37
40 33 28 12 10 21 28 24 6 11 25 14 13 12 7 6 10 14 9 12 10 7 9 3 4 7 7 8 10 15 4 7 19 13 3 8 17 25 55 40 45 50 46 47 48
42 32 26 14 12 19 26 15 4 10 22 9 12 8 13 11 6 11 17 14 12 13 9 7 8 8 9 12 1 6 6 7 11 11 10 10 17 19 54 36 37 42 38 40 50
46 33 23 15 4 14 21 11 8 4 13 7 7 4 4 12 0 7 10 12 13 15 7 9 12 0 8 8 7 4 5 8 13 13 5 13 13 25 39 38 49 34 27 40 44
49 36 21 14 4 8 17 15 19 12 13 6 4 7 9 7 2 9 9 5 6 5 3 13 1 5 6 6 7 7 5 12 14 8 5 17 17 16 12 15 29 37 25 26 25
52 38 22 12 11 7 7 17 15 17 3 7 3 6 3 2 2 7 11 9 6 4 5 8 7 3 2 9 7 2 4 9 12 14 5 10 13 11 6 18 49 44 27 6 8
53 40 21 9 11 13 3 13 16 10 8 5 4 2 2 4 2 6 18 3 5 4 9 4 7 9 11 10 3 5 6 9 11 6 6 4 12 11 9 14 27 52 42 27 14
53 37 19 4 6 8 6 19 8 1 6 2 2 4 4 4 5 6 15 1 6 5 9 5 12 12 16 5 7 6 13 12 8 7 5 16 4 10 13 13 26 36 37 27 21
47 28 16 8 8 2 11 6 3 9 3 4 6 10 7 15 10 6 8 11 7 10 8 5 3 9 7 4 6 13 9 7 6 6 2 5 5 7 7 11 17 33 34 24 33
33 26 32 25 13 16 14 1 9 7 7 10 6 9 9 12 13 13 9 13 5 5 9 12 6 8 10 9 12 19 14 9 11 8 9 9 5 12 3 5 9 18 24 18 38
23 27 27 25 22 25 8 8 7 3 5 5 7 6 10 13 10 12 6 6 11 9 5 4 8 8 11 5 7 7 5 7 8 5 9 12 12 10 9 14 13 12 15 12 48
12 18 27 31 24 23 6 10 7 1 4 8 5 11 9 9 6 8 6 3 3 3 8 3 5 6 7 6 4 10 7 2 2 4 3 6 7 7 10 7 16 23 19 13 58
4 8 39 32 25 19 10 4 2 3 4 8 6 4 7 10 7 8 0 4 4 8 3 7 5 5 9 7 12 6 3 5 6 4 9 10 8 7 9 4 7 14 21 14 41
14 4 37 29 17 14 8 2 6 8 4 6 4 4 4 3 1 3 4 1 2 6 13 5 6 8 4 8 2 10 6 10 6 6 3 9 11 9 10 14 12 10 3 17 19
17 6 33 26 14 8 4 8 11 6 8 6 7 5 6 5 3 2 4 3 9 9 4 2 8 2 4 2 2 2 6 7 8 9 6 6 11 7 13 26 32 29 19 11 18
20 12 21 21 7 8 14 10 6 13 7 3 4 3 2 6 2 3 5 3 7 5 11 10 2 4 12 9 4 3 5 7 7 4 12 6 11 6 7 17 36 40 49 33 44
16 9 14 22 16 6 10 8 12 23 5 2 5 7 5 1 1 4 4 1 6 4 9 10 7 13 12 12 7 6 7 10 10 7 8 15 15 23 16 18 31 49 48 50 39
17 6 8 9 11 10 3 8 10 13 9 5 5 5 9 6 2 6 3 5 2 2 5 8 8 9 9 11 8 10 16 15 16 16 15 29 19 29 32 21 45 49 38 38 38
10 9 8 7 13 8 8 4 4 11 7 8 1 3 3 8 13 10 9 8 11 1 4 5 4 8 6 13 16 16 16 17 23 25 24 28 34 34 55 42 36 44 39 38 36
17 10 5 5 8 4 2 6 9 13 11 7 2 5 3 13 19 18 19 13 13 14 11 7 10 5 8 6 10 13 13 12 8 4 5 10 16 13 14 17 29 38 30 31 30
Wind_Direction_850mb
1 359 356 353 351 347 342 332 320 305 294 289 292 299 307 319 322 334 42 13 248 197 181 172 169 162 162 155 130 122 65 150 246 173 282 328 352 343 346 277 115 235 297 311 186
2 1 358 354 352 352 350 344 335 318 299 289 289 296 305 326 346 85 46 18 36 176 184 169 146 145 127 124 141 92 106 213 238 222 254 306 328 319 357 348 220 294 288 288 192
1 1 360 353 351 355 359 356 349 339 319 300 295 297 308 340 128 56 28 15 144 166 172 150 135 138 104 114 146 138 170 208 276 290 306 285 334 328 323 316 252 309 296 233 193
1 359 359 355 354 358 359 356 349 347 341 325 309 307 327 10 122 57 39 38 125 177 168 142 141 101 92 101 141 68 233 210 290 309 318 290 311 308 254 254 270 299 315 234 207
359 358 357 357 353 355 357 358 356 357 356 349 342 54 52 71 86 71 46 43 78 162 159 136 134 117 102 154 21 154 277 317 307 301 293 298 297 263 268 268 260 266 275 245 223
358 357 356 358 354 352 356 358 4 6 15 20 41 72 86 95 113 77 56 47 49 69 172 142 106 90 100 127 130 255 279 291 292 296 295 278 306 332 285 324 258 256 264 229 223
357 356 356 359 0 357 357 358 13 33 41 46 59 76 102 96 135 173 39 39 56 58 95 121 52 38 1 27 332 309 325 337 49 326 299 343 341 237 311 319 306 268 252 250 216
356 355 357 0 3 2 358 358 19 36 41 43 53 78 88 76 31 349 16 37 38 57 70 81 46 80 43 327 15 38 57 26 300 356 37 62 274 277 319 321 309 279 259 249 234
355 353 356 351 13 3 356 359 26 22 13 39 45 57 66 22 56 24 61 92 38 67 54 77 94 60 47 67 18 7 31 336 324 318 344 79 277 275 312 316 296 293 278 245 238
353 352 352 340 324 349 350 360 78 11 360 47 51 74 49 25 39 57 101 83 70 97 97 60 62 60 31 53 352 302 344 306 259 273 358 287 258 284 307 315 313 306 273 226 228
351 350 348 337 291 354 358 10 359 7 20 346 325 315 333 9 138 109 116 121 86 75 66 31 63 43 250 188 188 212 207 250 266 264 237 271 278 284 312 0 350 325 264 228 229
349 350 346 334 211 79 36 61 27 328 317 12 339 306 325 344 42 160 138 107 85 102 85 24 66 231 222 188 180 182 248 289 283 271 164 293 298 293 36 30 9 360 320 278 259
348 347 345 333 193 194 44 39 7 350 330 303 280 304 341 130 338 194 178 128 105 75 60 135 257 320 60 35 45 270 162 298 266 314 273 330 305 323 338 11 11 14 17 3 241
345 346 344 346 180 207 252 345 326 320 64 278 265 144 172 217 328 219 194 146 54 116 164 224 347 354 53 65 33 25 331 259 269 348 291 41 285 297 6 356 13 4 14 47 77
344 348 342 336 218 177 292 324 326 284 74 179 183 130 97 102 308 65 198 220 142 115 87 303 26 52 48 27 14 248 310 292 276 249 64 338 307 268 27 357 348 359 357 40 63
351 3 16 40 123 71 315 335 151 51 146 12 15 6 49 16 19 75 85 89 72 85 26 49 55 54 344 23 87 292 337 335 51 109 141 242 174 314 1 324 324 339 351 53 86
9 62 62 58 30 338 329 165 48 113 329 346 354 18 87 1 8 30 40 24 58 42 1 358 358 334 22 19 349 28 39 342 352 16 222 282 319 256 122 36 321 342 352 63 97
50 65 50 29 8 7 6 60 83 35 30 328 20 57 78 11 22 12 71 46 17 58 88 89 315 26 333 113 265 318 122 157 273 238 270 315 252 314 55 50 19 15 357 85 106
78 59 31 13 354 354 357 62 176 139 306 5 58 62 17 3 47 50 52 123 268 7 137 120 275 326 33 0 70 313 42 196 27 28 337 267 297 212 141 82 48 11 360 349 116
67 27 10 357 356 354 71 146 27 260 63 49 82 52 28 354 44 42 6 228 174 33 65 194 318 18 308 59 28 90 112 33 15 328 299 292 284 265 219 142 45 64 338 349 101
17 31 1 1 4 38 95 285 320 17 56 75 152 101 104 62 58 313 351 337 176 42 66 102 116 289 23 27 275 2 36 58 105 134 239 312 274 218 240 157 127 42 18 14 1
13 41 359 6 40 32 38 315 343 314 28 56 96 110 145 171 215 239 136 312 346 156 126 58 130 209 220 334 252 66 149 128 119 266 246 260 264 204 233 177 170 152 163 255 327
359 339 10 8 67 358 326 316 322 11 355 45 117 116 130 183 303 190 155 360 41 121 171 186 36 22 348 359 326 187 179 127 110 117 216 217 266 213 245 189 184 172 182 236 245
5 7 13 54 72 72 3 312 334 341 310 76 112 93 96 93 33 198 195 312 357 87 122 128 143 173 202 218 176 249 220 186 157 183 205 227 277 281 243 217 202 207 215 226 217
23 48 16 328 350 356 327 339 344 349 338 1 38 164 156 178 270 233 237 311 210 5 88 116 194 196 252 242 213 226 244 244 198 224 211 271 230 261 268 206 221 222 221 227 213
35 12 350 307 317 330 13 50 331 329 294 312 229 205 144 179 201 242 195 200 222 38 95 13 225 163 265 253 248 260 257 250 255 251 251 260 272 270 284 278 215 209 223 226 215
17 360 341 337 348 7 266 5 320 345 291 324 8 114 241 239 257 256 239 245 235 178 176 149 146 103 265 331 332 296 231 231 250 202 195 230 243 329 299 276 199 188 204 235 244